GW4109 Weather Reports


Display with metric or nautical units.
time (UTC)temp
F
wind
direction
speed
MPH
gust
MPH
rain 1hr
in
rain 24hr
in
rain mn
in
humidity
%
barometer
mb
20260904051337 81 62 0.0 2.0 0.00 0.00 0.00 35 1012.9
20260904050837 81 91 2.0 3.0 0.00 0.00 0.00 34 1012.8
20260904050334 81 107 3.0 4.0 0.00 0.00 0.00 35 1012.8
20260904045833 80 56 2.0 3.0 0.00 0.00 0.00 35 1012.9
20260904045328 80 41 1.0 3.0 0.00 0.00 0.00 36 1013.0
20260904044828 80 66 0.0 2.0 0.00 0.00 0.00 36 1012.9
20260904044325 80 359 2.0 3.0 0.00 0.00 0.00 36 1012.9
20260904043821 81 276 2.0 3.0 0.00 0.00 0.00 34 1012.8
20260904043318 81 92 2.0 4.0 0.00 0.00 0.00 34 1012.6
20260904042817 81 67 2.0 3.0 0.00 0.00 0.00 34 1012.8
20260904042314 80 46 0.0 2.0 0.00 0.00 0.00 35 1013.0
20260904041814 80 55 1.0 2.0 0.00 0.00 0.00 36 1012.8
20260904041310 80 114 0.0 1.0 0.00 0.00 0.00 35 1012.6
20260904040806 81 265 1.0 2.0 0.00 0.00 0.00 34 1012.8
20260904040301 81 261 3.0 3.0 0.00 0.00 0.00 34 1012.6
20260904035757 82 287 2.0 2.0 0.00 0.00 0.00 32 1012.5
20260904035253 83 3 1.0 2.0 0.00 0.00 0.00 31 1012.6
20260904034751 84 330 4.0 6.0 0.00 0.00 0.00 31 1012.6
20260904034248 86 285 7.0 7.0 0.00 0.00 0.00 28 1012.3
20260904033743 87 258 4.0 10.0 0.00 0.00 0.00 27 1012.4
20260904033240 86 257 7.0 9.0 0.00 0.00 0.00 28 1012.3
20260904032736 86 242 8.0 11.0 0.00 0.00 0.00 29 1012.4
20260904032234 86 269 7.0 11.0 0.00 0.00 0.00 29 1012.2
20260904031729 87 243 5.0 13.0 0.00 0.00 0.00 29 1012.1
20260904031224 86 257 5.0 14.0 0.00 0.00 0.00 29 1012.2
20260904030720 87 263 5.0 11.0 0.00 0.00 0.00 28 1012.0
20260904030215 87 277 6.0 11.0 0.00 0.00 0.00 28 1012.0
20260904025712 87 249 9.0 9.0 0.00 0.00 0.00 28 1011.7
20260904025206 87 253 10.0 13.0 0.00 0.00 0.00 28 1011.6
20260904024702 87 252 6.0 14.0 0.00 0.00 0.00 28 1011.6
20260904024157 87 276 5.0 13.0 0.00 0.00 0.00 29 1011.5
20260904023653 87 282 5.0 10.0 0.00 0.00 0.00 29 1011.3
20260904023149 87 265 9.0 9.0 0.00 0.00 0.00 29 1011.4
20260904022648 87 273 6.0 11.0 0.00 0.00 0.00 28 1011.3
20260904022146 87 263 5.0 11.0 0.00 0.00 0.00 29 1011.2
20260904021641 87 264 5.0 10.0 0.00 0.00 0.00 29 1011.4
20260904021136 87 258 11.0 14.0 0.00 0.00 0.00 29 1011.3
20260904020633 88 259 8.0 13.0 0.00 0.00 0.00 28 1011.2
20260904020126 88 284 7.0 10.0 0.00 0.00 0.00 29 1011.5
20260904015620 88 293 6.0 13.0 0.00 0.00 0.00 29 1011.4
20260904015119 89 249 9.0 18.0 0.00 0.00 0.00 29 1011.4
20260904014619 88 271 6.0 12.0 0.00 0.00 0.00 29 1011.5
20260904014114 89 258 9.0 13.0 0.00 0.00 0.00 29 1011.2
20260904013611 89 281 8.0 11.0 0.00 0.00 0.00 28 1011.3
20260904013107 89 269 6.0 13.0 0.00 0.00 0.00 28 1011.4
20260904012602 90 274 11.0 14.0 0.00 0.00 0.00 28 1011.4
20260904012101 90 266 7.0 10.0 0.00 0.00 0.00 27 1011.3
20260904011600 91 251 7.0 9.0 0.00 0.00 0.00 27 1011.3
20260904011056 91 297 7.0 10.0 0.00 0.00 0.00 26 1011.5
20260904010552 92 279 4.0 5.0 0.00 0.00 0.00 25 1011.5
20260904010049 93 249 8.0 15.0 0.00 0.00 0.00 25 1011.4
20260904005548 94 313 5.0 10.0 0.00 0.00 0.00 24 1011.4
20260904005043 93 272 7.0 11.0 0.00 0.00 0.00 25 1011.2
20260904004539 93 256 5.0 14.0 0.00 0.00 0.00 25 1011.3
20260904004034 94 305 7.0 14.0 0.00 0.00 0.00 26 1011.2
20260904003530 94 265 7.0 13.0 0.00 0.00 0.00 25 1011.1
20260904003025 95 304 8.0 10.0 0.00 0.00 0.00 24 1011.1
20260904002521 95 290 5.0 11.0 0.00 0.00 0.00 24 1011.3
20260904002021 95 297 9.0 11.0 0.00 0.00 0.00 24 1011.4
20260904001517 95 244 12.0 16.0 0.00 0.00 0.00 25 1011.2
20260904001016 95 256 5.0 14.0 0.00 0.00 0.00 23 1011.2
20260904000515 95 317 11.0 16.0 0.00 0.00 0.00 24 1011.2
20260904000012 95 266 12.0 20.0 0.00 0.00 0.00 24 1011.3
20260903235511 95 307 7.0 15.0 0.00 0.00 0.00 24 1011.2
20260903235007 95 242 9.0 19.0 0.00 0.00 0.00 23 1011.3
20260903234502 95 271 6.0 18.0 0.00 0.00 0.00 25 1011.3
20260903233958 96 268 12.0 19.0 0.00 0.00 0.00 25 1011.2
20260903233454 96 261 9.0 11.0 0.00 0.00 0.00 25 1011.5
20260903232949 95 248 11.0 19.0 0.00 0.00 0.00 25 1011.7
20260903232444 96 258 9.0 14.0 0.00 0.00 0.00 24 1011.6
20260903231944 95 263 12.0 17.0 0.00 0.00 0.00 23 1011.8
20260903231439 96 268 8.0 22.0 0.00 0.00 0.00 23 1012.0
20260903230933 96 292 8.0 18.0 0.00 0.00 0.00 22 1011.8
20260903230429 97 295 9.0 15.0 0.00 0.00 0.00 22 1012.1
20260903225926 97 258 10.0 19.0 0.00 0.00 0.00 21 1012.0
20260903225421 97 249 13.0 20.0 0.00 0.00 0.00 20 1011.8
20260903224917 97 258 11.0 20.0 0.00 0.00 0.00 20 1012.2
20260903224413 98 277 10.0 15.0 0.00 0.00 0.00 19 1012.2
20260903223909 98 237 5.0 14.0 0.00 0.00 0.00 18 1012.2
20260903223408 98 254 10.0 18.0 0.00 0.00 0.00 17 1012.1
20260903222907 97 253 14.0 17.0 0.00 0.00 0.00 18 1012.3
20260903222403 98 280 8.0 17.0 0.00 0.00 0.00 17 1012.4
20260903221857 98 242 15.0 21.0 0.00 0.00 0.00 17 1012.2
20260903221355 99 229 13.0 20.0 0.00 0.00 0.00 16 1012.4
20260903220854 100 259 9.0 17.0 0.00 0.00 0.00 15 1012.3
20260903220348 99 304 9.0 13.0 0.00 0.00 0.00 16 1012.4
20260903215847 100 241 13.0 15.0 0.00 0.00 0.00 16 1012.3
20260903215343 99 231 11.0 15.0 0.00 0.00 0.00 16 1012.4
20260903214842 99 286 9.0 13.0 0.00 0.00 0.00 16 1012.4
20260903214338 99 246 17.0 18.0 0.00 0.00 0.00 16 1012.2
20260903213837 99 302 8.0 16.0 0.00 0.00 0.00 16 1012.4
20260903213332 99 254 14.0 15.0 0.00 0.00 0.00 16 1012.5
20260903212828 99 263 7.0 19.0 0.00 0.00 0.00 15 1012.6
20260903212325 99 265 4.0 15.0 0.00 0.00 0.00 15 1012.6
20260903211824 99 327 13.0 20.0 0.00 0.00 0.00 15 1012.7
20260903211320 99 310 9.0 15.0 0.00 0.00 0.00 15 1012.8
20260903210816 100 309 8.0 14.0 0.00 0.00 0.00 14 1012.7
20260903210311 100 319 10.0 13.0 0.00 0.00 0.00 14 1012.8
20260903205810 99 310 5.0 15.0 0.00 0.00 0.00 14 1012.8
20260903205310 99 259 8.0 13.0 0.00 0.00 0.00 14 1012.9
20260903204805 99 309 6.0 13.0 0.00 0.00 0.00 13 1012.9
20260903204301 99 299 3.0 13.0 0.00 0.00 0.00 13 1012.8
20260903203757 99 308 8.0 11.0 0.00 0.00 0.00 13 1012.8
20260903203252 100 290 8.0 11.0 0.00 0.00 0.00 13 1013.0
20260903202751 101 346 4.0 6.0 0.00 0.00 0.00 12 1013.0
20260903202248 100 308 5.0 6.0 0.00 0.00 0.00 12 1013.2
20260903201746 99 301 5.0 9.0 0.00 0.00 0.00 12 1013.2
20260903201242 99 105 1.0 8.0 0.00 0.00 0.00 11 1013.0
20260903200741 98 297 4.0 5.0 0.00 0.00 0.00 11 1013.3
20260903200236 99 354 3.0 6.0 0.00 0.00 0.00 12 1013.3
20260903195732 100 187 3.0 4.0 0.00 0.00 0.00 10 1013.4
20260903195228 100 201 1.0 4.0 0.00 0.00 0.00 10 1013.4
20260903194728 100 344 1.0 3.0 0.00 0.00 0.00 10 1013.5
20260903194223 99 221 4.0 4.0 0.00 0.00 0.00 11 1013.7
20260903193719 98 63 2.0 5.0 0.00 0.00 0.00 11 1013.5
20260903193214 100 86 0.0 3.0 0.00 0.00 0.00 10 1013.8
20260903192710 98 39 2.0 4.0 0.00 0.00 0.00 11 1013.9
20260903192205 98 102 5.0 6.0 0.00 0.00 0.00 11 1014.0
20260903191701 96 275 1.0 8.0 0.00 0.00 0.00 11 1014.0
20260903191156 98 118 3.0 4.0 0.00 0.00 0.00 11 1014.1
20260903190651 99 55 0.0 4.0 0.00 0.00 0.00 10 1014.3
20260903190151 99 221 0.0 4.0 0.00 0.00 0.00 10 1014.3
20260903185646 97 84 1.0 6.0 0.00 0.00 0.00 10 1014.3
20260903185141 97 77 3.0 7.0 0.00 0.00 0.00 11 1014.5
20260903184638 98 220 2.0 4.0 0.00 0.00 0.00 11 1014.6
20260903184133 97 67 3.0 5.0 0.00 0.00 0.00 11 1014.6
20260903183631 96 307 4.0 4.0 0.00 0.00 0.00 11 1014.8
20260903183126 96 105 0.0 4.0 0.00 0.00 0.00 11 1014.7
20260903182626 96 96 3.0 4.0 0.00 0.00 0.00 11 1014.9
20260903182122 96 74 4.0 5.0 0.00 0.00 0.00 11 1015.0
20260903181620 96 139 1.0 4.0 0.00 0.00 0.00 10 1015.1
20260903181115 95 230 0.0 6.0 0.00 0.00 0.00 11 1015.1
20260903180610 95 251 3.0 4.0 0.00 0.00 0.00 11 1015.1
20260903180104 96 115 2.0 4.0 0.00 0.00 0.00 10 1015.0
20260903175603 95 84 2.0 6.0 0.00 0.00 0.00 10 1015.2
20260903175103 94 100 4.0 4.0 0.00 0.00 0.00 10 1015.2
20260903174558 92 84 2.0 5.0 0.00 0.00 0.00 11 1015.3
20260903174052 93 269 0.0 3.0 0.00 0.00 0.00 11 1015.3
20260903173547 94 150 0.0 3.0 0.00 0.00 0.00 10 1015.4
20260903173045 93 143 2.0 2.0 0.00 0.00 0.00 10 1015.3
20260903172544 92 143 1.0 4.0 0.00 0.00 0.00 11 1015.3
20260903172040 92 88 3.0 6.0 0.00 0.00 0.00 11 1015.2
20260903171535 93 5 1.0 2.0 0.00 0.00 0.00 12 1015.4
20260903171030 92 104 2.0 4.0 0.00 0.00 0.00 12 1015.1
20260903170523 91 128 2.0 3.0 0.00 0.00 0.00 12 1015.5
20260903170019 90 86 2.0 4.0 0.00 0.00 0.00 11 1015.4
20260903165516 90 322 0.0 4.0 0.00 0.00 0.00 12 1015.5
20260903165012 92 58 1.0 3.0 0.00 0.00 0.00 11 1015.4
20260903164506 91 66 2.0 3.0 0.00 0.00 0.00 12 1015.4
20260903164001 90 94 0.0 3.0 0.00 0.00 0.00 11 1015.2
20260903163456 90 293 0.0 2.0 0.00 0.00 0.00 11 1015.4
20260903162952 89 99 2.0 4.0 0.00 0.00 0.00 12 1015.1
20260903162448 89 349 2.0 2.0 0.00 0.00 0.00 13 1015.4
20260903161944 89 83 2.0 2.0 0.00 0.00 0.00 12 1015.3
20260903161434 89 68 2.0 2.0 0.00 0.00 0.00 12 1015.3
20260903160930 89 51 0.0 2.0 0.00 0.00 0.00 12 1015.4
20260903160429 88 81 2.0 3.0 0.00 0.00 0.00 12 1015.5
20260903155928 89 51 2.0 2.0 0.00 0.00 0.00 13 1015.4
20260903155423 88 43 1.0 2.0 0.00 0.00 0.00 13 1015.3
20260903154919 88 79 2.0 4.0 0.00 0.00 0.00 12 1015.3
20260903154414 88 87 4.0 4.0 0.00 0.00 0.00 12 1015.5
20260903153914 87 39 0.0 2.0 0.00 0.00 0.00 13 1015.2
20260903153409 87 22 0.0 3.0 0.00 0.00 0.00 14 1015.6
20260903152906 87 357 2.0 2.0 0.00 0.00 0.00 15 1015.5
20260903152401 86 41 2.0 2.0 0.00 0.00 0.00 15 1015.4
20260903151857 87 65 2.0 3.0 0.00 0.00 0.00 14 1015.5
20260903151352 85 320 2.0 2.0 0.00 0.00 0.00 14 1015.4
20260903150847 85 28 0.0 3.0 0.00 0.00 0.00 16 1015.4
20260903150346 88 318 0.0 1.0 0.00 0.00 0.00 13 1015.4
20260903145841 85 48 0.0 1.0 0.00 0.00 0.00 13 1015.3
20260903145337 83 17 1.0 2.0 0.00 0.00 0.00 15 1015.6
20260903144836 86 13 0.0 1.0 0.00 0.00 0.00 14 1015.4
20260903144331 83 27 0.0 2.0 0.00 0.00 0.00 14 1015.3
20260903143826 80 75 0.0 2.0 0.00 0.00 0.00 15 1015.4
20260903143323 78 141 0.0 1.0 0.00 0.00 0.00 15 1015.3
20260903142818 76 147 0.0 2.0 0.00 0.00 0.00 16 1015.3
20260903142315 76 248 0.0 2.0 0.00 0.00 0.00 16 1015.4
20260903141810 75 180 1.0 2.0 0.00 0.00 0.00 16 1015.2
20260903141306 72 180 2.0 2.0 0.00 0.00 0.00 18 1015.3
20260903140806 72 209 2.0 3.0 0.00 0.00 0.00 17 1015.3
20260903140300 71 226 0.0 2.0 0.00 0.00 0.00 18 1015.3
20260903135756 70 185 1.0 2.0 0.00 0.00 0.00 19 1015.1
20260903135252 69 187 1.0 2.0 0.00 0.00 0.00 19 1015.0
20260903134750 68 225 2.0 2.0 0.00 0.00 0.00 19 1015.0
20260903134247 69 241 1.0 4.0 0.00 0.00 0.00 18 1015.0
20260903133743 68 260 2.0 3.0 0.00 0.00 0.00 18 1014.9
20260903133240 66 237 2.0 2.0 0.00 0.00 0.00 18 1015.0
20260903132740 67 225 1.0 2.0 0.00 0.00 0.00 18 1014.9
20260903132235 67 242 0.0 2.0 0.00 0.00 0.00 18 1014.9
20260903131731 67 95 0.0 2.0 0.00 0.00 0.00 18 1015.1
20260903131224 69 290 0.0 2.0 0.00 0.00 0.00 18 1015.0
20260903130719 67 97 3.0 4.0 0.00 0.00 0.00 18 1014.8
20260903130214 67 246 1.0 2.0 0.00 0.00 0.00 17 1014.9
20260903125712 66 126 2.0 3.0 0.00 0.00 0.00 17 1014.9
20260903125208 66 264 2.0 3.0 0.00 0.00 0.00 17 1014.8
20260903124707 66 159 0.0 2.0 0.00 0.00 0.00 18 1015.0
20260903124203 67 175 2.0 3.0 0.00 0.00 0.00 18 1014.7
20260903123701 66 317 0.0 1.0 0.00 0.00 0.00 18 1014.9
20260903123200 66 229 1.0 2.0 0.00 0.00 0.00 18 1014.8
20260903122659 67 245 0.0 2.0 0.00 0.00 0.00 20 1014.9
20260903122154 66 252 1.0 2.0 0.00 0.00 0.00 19 1014.7
20260903121652 66 200 1.0 2.0 0.00 0.00 0.00 20 1014.7
20260903121149 67 250 0.0 2.0 0.00 0.00 0.00 21 1014.8
20260903120648 68 206 0.0 2.0 0.00 0.00 0.00 20 1014.7
20260903120142 68 299 0.0 2.0 0.00 0.00 0.00 20 1014.7
20260903115640 69 193 0.0 2.0 0.00 0.00 0.00 20 1014.7
20260903115136 69 224 0.0 1.0 0.00 0.00 0.00 19 1014.9
20260903114631 69 13 0.0 2.0 0.00 0.00 0.00 19 1015.0
20260903114126 68 56 0.0 1.0 0.00 0.00 0.00 19 1015.0
20260903113622 67 25 0.0 2.0 0.00 0.00 0.00 18 1015.0
20260903113118 68 283 0.0 2.0 0.00 0.00 0.00 17 1014.8
20260903112614 68 154 1.0 2.0 0.00 0.00 0.00 17 1014.8
20260903112114 68 250 1.0 2.0 0.00 0.00 0.00 18 1014.8
20260903111613 67 151 2.0 2.0 0.00 0.00 0.00 18 1015.0
20260903111109 69 188 1.0 2.0 0.00 0.00 0.00 18 1014.9
20260903110605 68 284 0.0 2.0 0.00 0.00 0.00 18 1014.9
20260903110059 70 205 2.0 2.0 0.00 0.00 0.00 17 1014.8
20260903105554 69 62 0.0 2.0 0.00 0.00 0.00 18 1015.0
20260903105049 70 251 2.0 2.0 0.00 0.00 0.00 17 1014.9
20260903104543 70 198 2.0 3.0 0.00 0.00 0.00 17 1014.9
20260903104039 70 236 0.0 2.0 0.00 0.00 0.00 18 1015.0
20260903103535 71 237 0.0 2.0 0.00 0.00 0.00 18 1014.9
20260903103026 70 192 0.0 2.0 0.00 0.00 0.00 18 1014.9
20260903102521 71 215 1.0 3.0 0.00 0.00 0.00 17 1014.7
20260903102019 70 148 1.0 2.0 0.00 0.00 0.00 18 1014.9
20260903101514 69 193 2.0 3.0 0.00 0.00 0.00 18 1014.7
20260903101010 68 248 2.0 2.0 0.00 0.00 0.00 19 1014.9
20260903100505 71 287 1.0 2.0 0.00 0.00 0.00 18 1014.8
20260903100003 72 209 1.0 2.0 0.00 0.00 0.00 18 1014.9
20260903095501 72 227 0.0 2.0 0.00 0.00 0.00 18 1014.9
20260903094956 72 208 2.0 3.0 0.00 0.00 0.00 18 1014.9
20260903094456 73 158 1.0 2.0 0.00 0.00 0.00 18 1014.9
20260903093953 73 198 2.0 3.0 0.00 0.00 0.00 18 1015.0
20260903093447 71 231 1.0 2.0 0.00 0.00 0.00 20 1015.0
20260903092943 72 183 1.0 2.0 0.00 0.00 0.00 21 1015.1
20260903092443 72 121 1.0 1.0 0.00 0.00 0.00 21 1015.1
20260903091942 72 230 0.0 1.0 0.00 0.00 0.00 21 1015.0
20260903091440 73 122 0.0 2.0 0.00 0.00 0.00 21 1015.0
20260903090935 71 187 1.0 2.0 0.00 0.00 0.00 21 1015.1
20260903090431 70 221 1.0 2.0 0.00 0.00 0.00 22 1015.0
20260903085929 71 173 1.0 3.0 0.00 0.00 0.00 22 1015.0
20260903085428 71 182 1.0 3.0 0.00 0.00 0.00 22 1015.2
20260903084928 70 209 1.0 2.0 0.00 0.00 0.00 22 1015.1
20260903084426 73 269 1.0 2.0 0.00 0.00 0.00 21 1015.0
20260903083922 72 123 0.0 2.0 0.00 0.00 0.00 21 1015.1
20260903083418 74 260 2.0 3.0 0.00 0.00 0.00 20 1015.2
20260903082917 75 84 0.0 3.0 0.00 0.00 0.00 20 1015.2
20260903082412 73 151 1.0 2.0 0.00 0.00 0.00 21 1015.2
20260903081907 73 218 0.0 2.0 0.00 0.00 0.00 21 1015.3
20260903081402 73 207 0.0 2.0 0.00 0.00 0.00 21 1015.3
20260903080858 72 164 1.0 2.0 0.00 0.00 0.00 21 1015.5
20260903080355 73 180 1.0 2.0 0.00 0.00 0.00 21 1015.5
20260903075855 72 130 0.0 3.0 0.00 0.00 0.00 21 1015.4
20260903075351 72 179 2.0 3.0 0.00 0.00 0.00 21 1015.6
20260903074851 72 204 2.0 3.0 0.00 0.00 0.00 20 1015.6
20260903074345 71 120 0.0 2.0 0.00 0.00 0.00 21 1015.5
20260903073841 71 249 2.0 2.0 0.00 0.00 0.00 20 1015.7
20260903073341 73 145 0.0 2.0 0.00 0.00 0.00 20 1015.6
20260903072837 74 132 0.0 2.0 0.00 0.00 0.00 20 1015.5
20260903072333 73 318 0.0 1.0 0.00 0.00 0.00 20 1015.8
20260903071829 73 157 1.0 3.0 0.00 0.00 0.00 20 1015.4
20260903071325 74 324 2.0 3.0 0.00 0.00 0.00 19 1015.8
20260903070820 77 235 0.0 1.0 0.00 0.00 0.00 20 1015.8
20260903070315 78 159 1.0 1.0 0.00 0.00 0.00 20 1015.7
20260903065810 78 129 1.0 3.0 0.00 0.00 0.00 19 1015.8
20260903065309 77 116 0.0 2.0 0.00 0.00 0.00 19 1015.8
20260903064809 76 217 2.0 4.0 0.00 0.00 0.00 20 1015.8
20260903064304 77 241 0.0 1.0 0.00 0.00 0.00 20 1015.9
20260903063800 77 129 1.0 4.0 0.00 0.00 0.00 20 1015.9
20260903063255 77 95 1.0 4.0 0.00 0.00 0.00 21 1015.9
20260903062751 77 112 3.0 6.0 0.00 0.00 0.00 21 1015.8
20260903062250 77 82 3.0 4.0 0.00 0.00 0.00 22 1016.0
20260903061747 78 97 3.0 4.0 0.00 0.00 0.00 21 1015.9
20260903061245 78 132 1.0 3.0 0.00 0.00 0.00 21 1015.8
20260903060742 78 60 2.0 3.0 0.00 0.00 0.00 21 1015.8
20260903060241 79 65 2.0 4.0 0.00 0.00 0.00 21 1016.0
20260903055739 78 75 0.0 2.0 0.00 0.00 0.00 21 1015.9
20260903055237 78 52 1.0 1.0 0.00 0.00 0.00 21 1016.1
20260903054733 80 10 2.0 2.0 0.00 0.00 0.00 20 1016.0
20260903054228 81 65 2.0 3.0 0.00 0.00 0.00 20 1016.0
20260903053725 83 26 2.0 6.0 0.00 0.00 0.00 18 1016.0
20260903053224 83 298 6.0 12.0 0.00 0.00 0.00 14 1016.2
20260903052720 83 290 5.0 10.0 0.00 0.00 0.00 16 1016.2
20260903052215 83 317 6.0 14.0 0.00 0.00 0.00 16 1016.1
20260903051710 83 281 5.0 8.0 0.00 0.00 0.00 17 1016.1